Aérodrome :
LOGIN :

S'inscrire | Disclaimer

   EN    FR    IT 

 










Légende :    VFR   VFR Marginal   IFR   IFR Intensif   IFR Très Intensif
Visi : 
Plafond : 
>= 8 km
>= 3000ft
5 à 8 km
1000 à 3000 ft
1500m à 5 km
500 à 1000 ft
800 à 1500m
200 à 500 ft
< 800m
< 200 ft
Symboles :   Orages  Brouillard  Fortes neiges  Fortes précipitations  Vent > 20 kt
SIGMETs :   Divers  Orages  Givrage  Turbulence  Onde Orograph.  Cendres Volcan.






- Altitude de l'aérodrome : 443 ft
- Code IATA : SQQ


EYSA - Siauliai

DERNIER METAR :
  • 251320Z 12013KT 080V140 9999 SCT040 23/14 Q1004 BLU NOSIG

METARs EXPIRÉS :
  • 251250Z 12011KT 9999 FEW039 23/15 Q1004 BLU NOSIG
  • 251220Z 13012KT 9999 FEW038 23/15 Q1005 BLU NOSIG
  • 251150Z 14010KT 100V170 CAVOK 23/15 Q1005 BLU NOSIG
  • 251120Z 14013KT CAVOK 23/15 Q1005 BLU NOSIG

TAF TAF EYSA
Valide du 25 à 12h jusqu'au 25 à 21h UTC


251101Z 2512/2521 13014KT 9000 SCT045
TEMPO 2512/2521 SCT035CB



MET'MAP, la Météo Aéronautique d'un coup d'oeil ! - Copyright ORBIFLY Décembre 2007 - Disclaimer

ORBIFLY MET'MAP TEAM :

Programmation & Développement : Alexandra Zaïnal
Sur une idée originale de : Baudouin d'Aumeries
Assistance à la programmation : Marc-Olivier Méhu
Soutien technique & logistique : Manuel Goepfert

Contact : metmap@orbifly.com




SOURCES & CREDITS :

   NOAA